Volver al catálogo

KINEIS-1E

ActivoComunicacionesSSO
NORAD 60083·PAYLOAD·🇫🇷 France

Lanzado Jun 20, 2024 desde Rocket Lab Launch Complex 1

Loading…

Próximos Pases (próximas 24 horas)

TLE

ActualizadoSource: Space-Track

Época: Sep 14, 2026, 23:31 UTC

1 60083U 24114E   26257.98005311  .00000524  00000-0  74678-4 0  9995
2 60083  97.8934 279.9895 0001143 287.8424  72.2663 14.80771217120672

Sigue KINEIS-1E en tiempo real con AllMySat

Download on the App Store